DAL7755 KPBI-KEYW

Flight info

Callsign DAL7755
Flight time 0h 54m
Altitude 26000
Route WELLY4 WELLY SWAGS KRAKN KRAKN1
Aircraft A320/M-SDE3FGHIRWY/LB1

Departure

Time 2026-05-08 03:23
Airport Palm Beach International Airport (KPBI)

Arrival

Time 2026-05-08 04:18
Airport Key West International Airport (KEYW)
Time Latitude Longitude Altitude Speed Heading
2026-05-08 02:46 26.68596 -80.08995 26 ft 0 kts 92°
2026-05-08 03:12 26.68596 -80.08997 23 ft 2 kts 92°
2026-05-08 03:12 26.68597 -80.09026 24 ft 4 kts 92°
2026-05-08 03:13 26.68599 -80.09056 23 ft 4 kts 105°
2026-05-08 03:13 26.68610 -80.09081 27 ft 4 kts 142°
2026-05-08 03:13 26.68625 -80.09089 24 ft 0 kts 184°
2026-05-08 03:18 26.68561 -80.09093 22 ft 16 kts 182°
2026-05-08 03:18 26.68436 -80.09098 24 ft 19 kts 182°
2026-05-08 03:18 26.68361 -80.09162 22 ft 15 kts 270°
2026-05-08 03:19 26.68364 -80.09283 23 ft 17 kts 272°
2026-05-08 03:19 26.68370 -80.09432 22 ft 20 kts 272°
2026-05-08 03:19 26.68375 -80.09591 22 ft 22 kts 272°
2026-05-08 03:19 26.68386 -80.09797 22 ft 31 kts 272°
2026-05-08 03:20 26.68393 -80.09964 22 ft 33 kts 271°
2026-05-08 03:20 26.68407 -80.10312 22 ft 35 kts 272°
2026-05-08 03:20 26.68421 -80.10585 22 ft 36 kts 273°
2026-05-08 03:20 26.68429 -80.10781 22 ft 9 kts 272°
2026-05-08 03:21 26.68424 -80.10797 22 ft 0 kts 244°
2026-05-08 03:22 26.68354 -80.10817 22 ft 18 kts 160°
2026-05-08 03:22 26.68314 -80.10688 22 ft 20 kts 92°
2026-05-08 03:22 26.68296 -80.10327 22 ft 91 kts 92°
2026-05-08 03:23 26.68251 -80.09288 44 ft 169 kts 92°
2026-05-08 03:23 26.68202 -80.07843 533 ft 202 kts 97°
2026-05-08 03:23 26.68137 -80.06242 1409 ft 214 kts 95°
2026-05-08 03:23 26.68184 -80.04484 2022 ft 241 kts 78°
2026-05-08 03:24 26.68830 -80.02648 2540 ft 264 kts 63°
2026-05-08 03:24 26.69776 -80.00845 3365 ft 273 kts 52°
2026-05-08 03:24 26.71155 -79.99392 3958 ft 275 kts 26°
2026-05-08 03:24 26.72944 -79.98748 4945 ft 270 kts
2026-05-08 03:25 26.74792 -79.98965 5877 ft 270 kts 340°
2026-05-08 03:25 26.76408 -80.00050 6683 ft 276 kts 315°
2026-05-08 03:25 26.77455 -80.01824 7439 ft 282 kts 289°
2026-05-08 03:25 26.77727 -80.04022 8241 ft 285 kts 263°
2026-05-08 03:26 26.77250 -80.06178 9099 ft 287 kts 252°
2026-05-08 03:26 26.76664 -80.08323 9952 ft 289 kts 252°
2026-05-08 03:26 26.76065 -80.10514 10440 ft 305 kts 252°
2026-05-08 03:26 26.75424 -80.12868 10705 ft 325 kts 253°
2026-05-08 03:27 26.74753 -80.15330 11225 ft 335 kts 253°
2026-05-08 03:27 26.74071 -80.17845 11878 ft 341 kts 253°
2026-05-08 03:27 26.73389 -80.20365 12566 ft 345 kts 253°
2026-05-08 03:27 26.72692 -80.22943 13296 ft 348 kts 253°
2026-05-08 03:28 26.71989 -80.25543 14011 ft 351 kts 254°
2026-05-08 03:28 26.71280 -80.28163 14667 ft 353 kts 254°
2026-05-08 03:28 26.70567 -80.30796 15331 ft 355 kts 254°
2026-05-08 03:28 26.69849 -80.33446 15990 ft 357 kts 255°
2026-05-08 03:29 26.69128 -80.36110 16651 ft 359 kts 255°
2026-05-08 03:29 26.68402 -80.38790 17308 ft 361 kts 255°
2026-05-08 03:29 26.67670 -80.41484 17958 ft 363 kts 255°
2026-05-08 03:29 26.66930 -80.44193 18572 ft 366 kts 255°
2026-05-08 03:30 26.65436 -80.49658 19722 ft 369 kts 255°
2026-05-08 03:30 26.63929 -80.55180 20879 ft 373 kts 255°
2026-05-08 03:31 26.62591 -80.60802 22024 ft 375 kts 265°
2026-05-08 03:31 26.62177 -80.66634 23147 ft 378 kts 267°
2026-05-08 03:32 26.61977 -80.69574 23675 ft 381 kts 267°
2026-05-08 03:32 26.61757 -80.72529 24105 ft 383 kts 264°
2026-05-08 03:32 26.61126 -80.75440 24521 ft 389 kts 252°
2026-05-08 03:32 26.60872 -80.76152 24626 ft 391 kts 249°
2026-05-08 03:33 26.60278 -80.77476 24825 ft 394 kts 243°
2026-05-08 03:33 26.58637 -80.79961 25229 ft 403 kts 231°
2026-05-08 03:33 26.56471 -80.82000 25611 ft 413 kts 218°
2026-05-08 03:33 26.54051 -80.83758 25933 ft 416 kts 218°
2026-05-08 03:34 26.51623 -80.85511 26025 ft 412 kts 218°
2026-05-08 03:34 26.49237 -80.87229 26039 ft 405 kts 218°
2026-05-08 03:34 26.46878 -80.88930 26037 ft 403 kts 218°
2026-05-08 03:34 26.44528 -80.90630 26038 ft 402 kts 218°
2026-05-08 03:35 26.42185 -80.92328 26034 ft 401 kts 218°
2026-05-08 03:35 26.39844 -80.94024 26035 ft 401 kts 218°
2026-05-08 03:35 26.37504 -80.95721 26035 ft 401 kts 218°
2026-05-08 03:35 26.35166 -80.97414 26035 ft 401 kts 218°
2026-05-08 03:36 26.32823 -80.99105 26035 ft 401 kts 218°
2026-05-08 03:36 26.30479 -81.00792 26034 ft 401 kts 218°
2026-05-08 03:36 26.28136 -81.02477 26021 ft 401 kts 218°
2026-05-08 03:36 26.25795 -81.04165 26022 ft 401 kts 218°
2026-05-08 03:37 26.23456 -81.05855 26018 ft 401 kts 218°
2026-05-08 03:37 26.21114 -81.07544 26024 ft 401 kts 218°
2026-05-08 03:37 26.18773 -81.09230 26018 ft 401 kts 218°
2026-05-08 03:37 26.16345 -81.10789 26017 ft 404 kts 212°
2026-05-08 03:38 26.13843 -81.12222 26023 ft 405 kts 212°
2026-05-08 03:38 26.11340 -81.13653 26018 ft 405 kts 212°
2026-05-08 03:38 26.08839 -81.15084 26018 ft 405 kts 212°
2026-05-08 03:38 26.06335 -81.16519 26018 ft 405 kts 212°
2026-05-08 03:39 26.03834 -81.17954 26020 ft 405 kts 212°
2026-05-08 03:39 26.01335 -81.19387 26020 ft 404 kts 212°
2026-05-08 03:39 25.98832 -81.20822 26001 ft 404 kts 212°
2026-05-08 03:39 25.96332 -81.22257 26002 ft 405 kts 212°
2026-05-08 03:40 25.93831 -81.23691 26009 ft 405 kts 212°
2026-05-08 03:40 25.91326 -81.25124 26011 ft 405 kts 212°
2026-05-08 03:40 25.88818 -81.26558 26013 ft 405 kts 212°
2026-05-08 03:40 25.86311 -81.27990 26014 ft 405 kts 212°
2026-05-08 03:41 25.83799 -81.29423 26019 ft 406 kts 212°
2026-05-08 03:41 25.81291 -81.30852 26021 ft 405 kts 212°
2026-05-08 03:41 25.78776 -81.32289 26033 ft 411 kts 212°
2026-05-08 03:41 25.76210 -81.33754 26038 ft 417 kts 212°
2026-05-08 03:42 25.73627 -81.35226 26043 ft 418 kts 212°
2026-05-08 03:42 25.71038 -81.36699 26046 ft 419 kts 212°
2026-05-08 03:42 25.68446 -81.38172 26037 ft 419 kts 212°
2026-05-08 03:42 25.65847 -81.39649 26046 ft 420 kts 212°
2026-05-08 03:43 25.63249 -81.41130 26058 ft 420 kts 212°
2026-05-08 03:43 25.60649 -81.42610 26057 ft 420 kts 212°
2026-05-08 03:43 25.58047 -81.44088 26057 ft 420 kts 212°
2026-05-08 03:43 25.55445 -81.45568 26056 ft 420 kts 212°
2026-05-08 03:44 25.52845 -81.47045 26058 ft 420 kts 212°
2026-05-08 03:44 25.50246 -81.48522 26059 ft 420 kts 212°
2026-05-08 03:44 25.47646 -81.49996 26057 ft 420 kts 212°
2026-05-08 03:44 25.45049 -81.51467 26058 ft 420 kts 212°
2026-05-08 03:45 25.42448 -81.52939 26056 ft 419 kts 212°
2026-05-08 03:45 25.39853 -81.54408 26055 ft 419 kts 212°
2026-05-08 03:45 25.36903 -81.56080 26041 ft 420 kts 212°
2026-05-08 03:45 25.34307 -81.57551 26041 ft 420 kts 212°
2026-05-08 03:46 25.32551 -81.58546 26041 ft 420 kts 212°
2026-05-08 03:46 25.29947 -81.60018 26042 ft 420 kts 211°
2026-05-08 03:46 25.27344 -81.61486 25853 ft 420 kts 211°
2026-05-08 03:46 25.24744 -81.62892 25088 ft 423 kts 209°
2026-05-08 03:47 25.22019 -81.64224 24419 ft 421 kts 207°
2026-05-08 03:47 25.19334 -81.65443 23443 ft 414 kts 206°
2026-05-08 03:47 25.16707 -81.66594 22315 ft 410 kts 205°
2026-05-08 03:47 25.14075 -81.67745 21260 ft 404 kts 205°
2026-05-08 03:48 25.11479 -81.68899 20234 ft 400 kts 205°
2026-05-08 03:48 25.08920 -81.70056 19255 ft 396 kts 205°
2026-05-08 03:48 25.06387 -81.71218 18306 ft 393 kts 205°
2026-05-08 03:48 25.03929 -81.72355 17946 ft 371 kts 205°
2026-05-08 03:49 25.01625 -81.73420 17682 ft 349 kts 204°
2026-05-08 03:49 24.99418 -81.74442 17096 ft 340 kts 204°
2026-05-08 03:49 24.97255 -81.75443 16441 ft 335 kts 204°
2026-05-08 03:49 24.95118 -81.76429 15787 ft 330 kts 204°
2026-05-08 03:50 24.93012 -81.77397 15153 ft 326 kts 203°
2026-05-08 03:50 24.90929 -81.78353 14531 ft 322 kts 203°
2026-05-08 03:50 24.88875 -81.79290 13937 ft 317 kts 200°
2026-05-08 03:50 24.86754 -81.79869 13258 ft 312 kts 188°
2026-05-08 03:51 24.84615 -81.80224 12567 ft 310 kts 188°
2026-05-08 03:51 24.82491 -81.80575 11893 ft 307 kts 188°
2026-05-08 03:51 24.80393 -81.80926 11241 ft 304 kts 187°
2026-05-08 03:51 24.78312 -81.81273 10582 ft 301 kts 187°
2026-05-08 03:52 24.76257 -81.81614 10188 ft 296 kts 187°
2026-05-08 03:52 24.74218 -81.81953 10061 ft 297 kts 187°
2026-05-08 03:52 24.72178 -81.82293 10056 ft 297 kts 187°
2026-05-08 03:52 24.70134 -81.82635 10062 ft 297 kts 187°
2026-05-08 03:53 24.68089 -81.82977 10062 ft 297 kts 187°
2026-05-08 03:53 24.66044 -81.83318 10064 ft 297 kts 187°
2026-05-08 03:53 24.64000 -81.83656 10062 ft 297 kts 187°
2026-05-08 03:53 24.61954 -81.83993 10062 ft 297 kts 187°
2026-05-08 03:54 24.59934 -81.84329 10056 ft 283 kts 187°
2026-05-08 03:54 24.58059 -81.84645 10058 ft 266 kts 187°
2026-05-08 03:54 24.56243 -81.84950 10062 ft 263 kts 186°
2026-05-08 03:54 24.54428 -81.85042 10064 ft 261 kts 176°
2026-05-08 03:55 24.52613 -81.84983 10064 ft 261 kts 176°
2026-05-08 03:55 24.50799 -81.84929 10063 ft 261 kts 176°
2026-05-08 03:55 24.48988 -81.84858 10061 ft 260 kts 172°
2026-05-08 03:55 24.47334 -81.84180 10009 ft 255 kts 140°
2026-05-08 03:56 24.46318 -81.82649 9441 ft 250 kts 105°
2026-05-08 03:56 24.46183 -81.80759 8760 ft 251 kts 89°
2026-05-08 03:56 24.46220 -81.78833 8133 ft 252 kts 89°
2026-05-08 03:56 24.46254 -81.76912 7527 ft 252 kts 89°
2026-05-08 03:57 24.46281 -81.74988 6952 ft 251 kts 89°
2026-05-08 03:57 24.46304 -81.73093 6445 ft 249 kts 89°
2026-05-08 03:57 24.46325 -81.71187 5788 ft 251 kts 89°
2026-05-08 03:57 24.46345 -81.69266 5141 ft 252 kts 89°
2026-05-08 03:58 24.46365 -81.67339 4492 ft 253 kts 89°
2026-05-08 03:58 24.46383 -81.65432 4066 ft 244 kts 88°
2026-05-08 03:58 24.46398 -81.63638 3867 ft 226 kts 88°
2026-05-08 03:58 24.46412 -81.61943 3734 ft 220 kts 88°
2026-05-08 03:59 24.46426 -81.60269 3605 ft 219 kts 88°
2026-05-08 03:59 24.46441 -81.58601 3480 ft 218 kts 88°
2026-05-08 03:59 24.46457 -81.56940 3355 ft 218 kts 88°
2026-05-08 03:59 24.46472 -81.55304 3214 ft 217 kts 88°
2026-05-08 04:00 24.46491 -81.53647 3090 ft 217 kts 87°
2026-05-08 04:00 24.46599 -81.52005 2972 ft 215 kts 73°
2026-05-08 04:00 24.47285 -81.50585 2844 ft 211 kts 45°
2026-05-08 04:00 24.48494 -81.49717 2725 ft 209 kts 17°
2026-05-08 04:01 24.49946 -81.49593 2608 ft 209 kts 348°
2026-05-08 04:01 24.51258 -81.50241 2479 ft 209 kts 320°
2026-05-08 04:01 24.52298 -81.51336 2362 ft 211 kts 316°
2026-05-08 04:01 24.53357 -81.52484 2239 ft 211 kts 316°
2026-05-08 04:02 24.54392 -81.53644 2114 ft 212 kts 310°
2026-05-08 04:02 24.55183 -81.54982 1995 ft 213 kts 296°
2026-05-08 04:02 24.55664 -81.56547 1898 ft 214 kts 282°
2026-05-08 04:02 24.55780 -81.58158 1783 ft 215 kts 269°
2026-05-08 04:03 24.55760 -81.59803 1660 ft 215 kts 270°
2026-05-08 04:03 24.55729 -81.63106 1407 ft 214 kts 270°
2026-05-08 04:03 24.55715 -81.64744 1283 ft 215 kts 269°
2026-05-08 04:04 24.55700 -81.66363 1157 ft 216 kts 269°
2026-05-08 04:04 24.55686 -81.68011 1042 ft 215 kts 270°
2026-05-08 04:04 24.55669 -81.69652 920 ft 214 kts 269°
2026-05-08 04:04 24.55654 -81.71288 812 ft 214 kts 271°
2026-05-08 04:05 24.55639 -81.72927 719 ft 203 kts 269°
2026-05-08 04:05 24.55623 -81.74415 389 ft 190 kts 270°
2026-05-08 04:05 24.55631 -81.75825 275 ft 175 kts 273°
2026-05-08 04:05 24.55660 -81.77196 791 ft 189 kts 270°
2026-05-08 04:06 24.55750 -81.78670 699 ft 194 kts 286°
2026-05-08 04:06 24.56316 -81.80039 936 ft 198 kts 297°
2026-05-08 04:06 24.56912 -81.81380 1428 ft 197 kts 296°
2026-05-08 04:06 24.57508 -81.82732 1866 ft 197 kts 297°
2026-05-08 04:07 24.58104 -81.84087 2316 ft 196 kts 297°
2026-05-08 04:07 24.58696 -81.85433 2739 ft 196 kts 297°
2026-05-08 04:07 24.59299 -81.86803 2990 ft 197 kts 297°
2026-05-08 04:07 24.59887 -81.88140 3004 ft 197 kts 296°
2026-05-08 04:08 24.60483 -81.89493 3006 ft 196 kts 297°
2026-05-08 04:08 24.61076 -81.90840 2997 ft 196 kts 297°
2026-05-08 04:08 24.61671 -81.92187 2999 ft 196 kts 297°
2026-05-08 04:08 24.62265 -81.93535 2999 ft 196 kts 297°
2026-05-08 04:09 24.62879 -81.94872 2999 ft 196 kts 303°
2026-05-08 04:09 24.63905 -81.95802 2997 ft 194 kts 340°
2026-05-08 04:09 24.65227 -81.95854 3001 ft 194 kts 17°
2026-05-08 04:09 24.66394 -81.95121 3007 ft 194 kts 32°
2026-05-08 04:10 24.67544 -81.94346 3001 ft 194 kts 30°
2026-05-08 04:10 24.68707 -81.93595 3002 ft 193 kts 29°
2026-05-08 04:10 24.69867 -81.92847 2998 ft 194 kts 30°
2026-05-08 04:10 24.71020 -81.92073 3000 ft 195 kts 36°
2026-05-08 04:11 24.71826 -81.90897 2999 ft 196 kts 69°
2026-05-08 04:11 24.71870 -81.89413 2998 ft 199 kts 105°
2026-05-08 04:11 24.71102 -81.88164 3001 ft 202 kts 139°
2026-05-08 04:11 24.69835 -81.87535 3003 ft 203 kts 172°
2026-05-08 04:12 24.68459 -81.87745 2997 ft 203 kts 205°
2026-05-08 04:12 24.67250 -81.88540 3004 ft 203 kts 213°
2026-05-08 04:12 24.66061 -81.89366 3002 ft 202 kts 213°
2026-05-08 04:12 24.64869 -81.90196 3001 ft 202 kts 213°
2026-05-08 04:13 24.63683 -81.91022 2999 ft 202 kts 213°
2026-05-08 04:13 24.62496 -81.91850 3000 ft 202 kts 213°
2026-05-08 04:13 24.61269 -81.92609 2998 ft 203 kts 202°
2026-05-08 04:13 24.59888 -81.92926 3008 ft 203 kts 182°
2026-05-08 04:14 24.58491 -81.92722 3004 ft 204 kts 163°
2026-05-08 04:14 24.57147 -81.92252 3005 ft 198 kts 160°
2026-05-08 04:14 24.56075 -81.91472 2846 ft 176 kts 129°
2026-05-08 04:14 24.55545 -81.90345 2654 ft 160 kts 100°
2026-05-08 04:15 24.55474 -81.89131 2475 ft 167 kts 88°
2026-05-08 04:15 24.55485 -81.87876 2192 ft 160 kts 88°
2026-05-08 04:15 24.55498 -81.86693 1937 ft 152 kts 88°
2026-05-08 04:15 24.55510 -81.85554 1692 ft 147 kts 89°
2026-05-08 04:16 24.55521 -81.84457 1472 ft 140 kts 88°
2026-05-08 04:16 24.55534 -81.83402 1283 ft 137 kts 89°
2026-05-08 04:16 24.55546 -81.82362 1105 ft 135 kts 89°
2026-05-08 04:16 24.55557 -81.81335 919 ft 134 kts 89°
2026-05-08 04:17 24.55569 -81.80301 746 ft 136 kts 88°
2026-05-08 04:17 24.55581 -81.79256 547 ft 137 kts 89°
2026-05-08 04:17 24.55591 -81.78205 343 ft 138 kts 89°
2026-05-08 04:17 24.55602 -81.77152 125 ft 137 kts 89°
2026-05-08 04:18 24.55608 -81.76105 13 ft 137 kts 90°
2026-05-08 04:18 24.55611 -81.75276 13 ft 47 kts 93°
2026-05-08 04:18 24.55617 -81.75212 15 ft 3 kts
2026-05-08 04:18 24.55623 -81.75299 14 ft 22 kts 267°
2026-05-08 04:19 24.55609 -81.75515 18 ft 17 kts 268°
2026-05-08 04:19 24.55570 -81.75585 14 ft 11 kts 180°
2026-05-08 04:19 24.55492 -81.75560 14 ft 14 kts 116°
2026-05-08 04:19 24.55444 -81.75539 13 ft 0 kts 177°